Temperature
1 0 -0 -1 -1 -1 -2 -3 -3 -4 -3 -3 -3 -3 -3 -2 -2 -2 -2 -2 -2 -2 -2 -2 -1 -1 -1 -1 -0 -0 0 1 1 1 2 2 2 3
0 -0 -1 -1 -2 -2 -2 -3 -3 -4 -4 -4 -4 -4 -4 -3 -3 -3 -3 -3 -3 -3 -2 -2 -2 -2 -2 -1 -1 -1 -1 -0 0 1 1 1 2 2
-1 -1 -1 -2 -2 -3 -3 -3 -4 -4 -4 -4 -4 -4 -4 -4 -4 -3 -3 -3 -3 -3 -3 -3 -3 -2 -2 -2 -2 -1 -1 -1 -0 -0 0 1 1 2
-1 -2 -2 -2 -3 -3 -4 -4 -4 -4 -5 -5 -5 -5 -5 -4 -4 -4 -4 -4 -4 -3 -3 -3 -3 -3 -3 -2 -2 -2 -2 -1 -1 -1 -0 -0 0 1
-2 -2 -2 -3 -3 -4 -4 -4 -4 -5 -5 -5 -5 -5 -5 -5 -5 -5 -4 -4 -4 -4 -4 -4 -3 -3 -3 -3 -3 -2 -2 -2 -2 -1 -1 -1 -1 -0
-2 -3 -3 -4 -4 -4 -5 -5 -5 -5 -5 -5 -5 -5 -5 -5 -5 -5 -5 -5 -5 -4 -4 -4 -4 -4 -4 -3 -3 -3 -3 -2 -2 -2 -2 -1 -1 -1
-3 -3 -4 -4 -4 -5 -5 -5 -5 -5 -5 -5 -5 -5 -5 -5 -5 -5 -5 -5 -5 -5 -5 -4 -4 -4 -4 -3 -3 -3 -3 -3 -3 -2 -2 -2 -2 -1
-4 -4 -4 -4 -4 -5 -5 -5 -5 -5 -5 -5 -5 -5 -5 -5 -6 -6 -6 -6 -6 -5 -5 -5 -5 -4 -4 -4 -4 -3 -3 -3 -3 -3 -3 -2 -2 -2
-4 -4 -5 -5 -5 -5 -5 -6 -5 -5 -6 -6 -6 -6 -6 -6 -6 -6 -6 -6 -6 -5 -6 -5 -5 -5 -4 -4 -4 -4 -4 -4 -3 -3 -3 -3 -3 -2
-5 -5 -5 -5 -5 -6 -6 -6 -6 -6 -5 -6 -6 -6 -6 -6 -6 -6 -6 -6 -6 -5 -6 -6 -5 -5 -5 -4 -4 -4 -4 -4 -4 -4 -3 -3 -3 -3
-5 -5 -6 -6 -6 -6 -6 -6 -6 -6 -6 -6 -6 -6 -6 -6 -6 -6 -6 -6 -6 -6 -6 -6 -6 -6 -5 -5 -4 -4 -4 -4 -4 -4 -4 -4 -3 -3
-6 -6 -6 -6 -6 -6 -6 -6 -6 -6 -6 -6 -6 -6 -6 -6 -6 -6 -7 -7 -7 -7 -6 -7 -6 -6 -6 -5 -5 -4 -4 -4 -4 -4 -4 -4 -4 -4
-6 -6 -6 -7 -7 -6 -6 -6 -6 -6 -6 -6 -6 -6 -6 -6 -7 -7 -7 -7 -7 -7 -7 -7 -7 -7 -7 -6 -6 -5 -5 -5 -5 -4 -4 -4 -4 -4
-7 -7 -7 -7 -7 -7 -7 -7 -6 -6 -6 -6 -7 -7 -7 -7 -7 -7 -7 -7 -7 -7 -7 -7 -7 -7 -7 -7 -7 -6 -5 -5 -5 -5 -5 -4 -4 -4
-7 -7 -7 -7 -7 -7 -7 -7 -7 -7 -7 -7 -7 -7 -7 -8 -8 -8 -8 -8 -7 -7 -7 -7 -7 -7 -7 -7 -7 -6 -6 -6 -5 -5 -5 -5 -5 -5
-7 -7 -7 -7 -7 -7 -7 -7 -7 -8 -8 -8 -8 -8 -8 -8 -8 -8 -8 -8 -8 -7 -7 -7 -7 -7 -7 -7 -7 -7 -6 -6 -6 -5 -5 -5 -5 -5
-7 -7 -7 -7 -8 -8 -8 -8 -8 -8 -9 -8 -9 -9 -9 -9 -9 -8 -9 -9 -8 -8 -7 -7 -7 -7 -7 -7 -7 -7 -6 -6 -6 -6 -6 -6 -6 -5
-8 -8 -8 -8 -9 -9 -9 -9 -9 -9 -9 -9 -9 -9 -9 -9 -9 -9 -9 -9 -9 -8 -8 -8 -8 -8 -7 -7 -7 -7 -7 -6 -6 -6 -6 -6 -6 -6
-8 -8 -9 -9 -9 -9 -10 -10 -10 -10 -10 -10 -10 -10 -9 -9 -9 -9 -9 -9 -9 -9 -8 -8 -8 -8 -8 -8 -7 -7 -7 -7 -7 -6 -6 -6 -6 -6
-9 -9 -9 -10 -10 -10 -10 -10 -10 -10 -10 -10 -10 -10 -10 -10 -10 -10 -10 -9 -9 -9 -9 -8 -8 -8 -8 -8 -8 -7 -7 -7 -7 -7 -7 -7 -7 -7
-10 -10 -10 -10 -10 -10 -11 -11 -11 -11 -11 -11 -10 -10 -10 -10 -10 -10 -10 -10 -10 -9 -9 -9 -8 -8 -8 -8 -8 -8 -7 -7 -7 -7 -7 -7 -7 -7
-10 -10 -10 -11 -11 -11 -11 -11 -11 -11 -11 -11 -11 -10 -10 -10 -10 -10 -10 -10 -10 -10 -9 -9 -9 -9 -9 -8 -8 -8 -8 -8 -8 -8 -8 -8 -8 -7
-11 -11 -11 -11 -11 -11 -11 -11 -11 -11 -11 -11 -11 -11 -10 -10 -10 -10 -10 -10 -10 -10 -10 -9 -9 -9 -9 -9 -9 -8 -8 -8 -8 -8 -8 -8 -8 -8
Wind_Speed
8 9 8 7 7 8 8 8 9 15 13 6 5 6 9 13 19 19 18 24 28 29 29 29 29 28 28 28 28 28 28 28 27 27 27 28 28 28
7 8 9 8 7 7 8 8 9 12 15 6 6 7 9 13 21 20 19 27 29 29 29 29 28 28 28 28 28 28 28 28 28 28 28 28 28 28
9 9 11 10 8 8 8 8 9 10 16 13 7 7 9 12 14 16 19 18 20 27 28 28 28 28 28 27 28 28 28 28 28 28 28 29 29 28
11 10 12 10 10 9 8 10 10 10 13 18 11 8 10 10 12 13 13 16 15 23 27 28 28 27 27 27 27 27 27 27 27 27 27 27 27 27
11 12 12 11 12 10 10 10 10 12 11 14 15 10 8 9 10 11 13 11 14 19 23 25 26 26 26 26 26 26 26 25 25 25 25 25 26 26
12 12 12 12 13 12 11 12 12 12 12 13 14 11 9 8 8 9 11 9 10 12 16 19 22 25 26 25 25 24 24 24 24 24 24 24 24 24
12 12 12 16 19 17 14 11 11 11 12 12 13 12 9 7 8 7 11 10 10 9 10 10 11 10 12 19 21 22 23 23 23 23 23 23 22 23
11 11 12 15 19 24 26 25 22 16 13 12 12 12 11 9 9 10 11 12 11 5 7 9 7 9 9 8 18 23 23 22 22 22 22 22 22 22
11 11 12 13 19 12 19 24 23 26 25 17 15 14 13 11 11 13 13 13 13 7 7 11 8 10 9 12 22 23 22 22 21 21 21 21 21 21
11 12 12 13 13 15 14 14 14 16 18 14 13 15 14 13 13 14 14 13 12 9 8 11 9 10 10 9 19 21 21 21 20 20 20 20 20 20
11 11 12 12 21 25 18 15 15 14 19 24 24 23 24 24 18 10 9 10 11 7 6 7 7 8 8 9 12 18 19 19 18 18 18 18 18 17
10 11 18 20 24 26 16 14 16 14 12 13 15 17 14 15 20 11 8 10 10 7 5 5 5 4 5 5 5 5 7 12 15 15 15 15 15 9
11 9 10 22 26 27 24 15 19 19 12 10 9 9 8 8 8 8 8 9 10 9 5 4 5 5 6 5 3 4 4 4 4 6 9 11 12 9
12 10 12 24 26 27 21 21 25 21 8 7 7 7 7 7 7 8 9 9 10 11 9 7 7 7 7 7 5 3 3 4 4 4 3 6 8 9
12 20 24 27 25 18 20 24 20 9 7 8 8 8 7 7 7 6 7 8 9 9 9 9 9 8 8 8 6 4 3 3 4 4 3 3 3 2
14 18 23 23 19 17 16 13 8 8 9 9 8 7 6 6 7 6 6 6 6 7 7 8 8 9 8 8 7 6 4 3 2 3 3 2 2 3
14 10 8 8 7 7 7 8 7 7 8 7 8 8 8 7 7 6 6 5 6 7 6 5 5 6 8 7 7 7 5 5 4 3 3 3 3 4
18 9 8 8 9 9 9 9 7 8 8 8 8 8 8 8 8 6 6 6 7 7 6 5 3 2 2 4 8 7 5 5 4 4 4 3 3 3
12 8 8 9 9 9 9 9 9 8 7 8 8 8 8 8 8 7 6 6 6 6 6 4 3 3 4 4 4 6 5 4 3 3 4 4 3 3
8 9 9 9 9 9 9 9 9 8 7 8 8 8 8 8 8 7 7 7 7 6 5 4 4 5 5 5 3 3 6 5 4 4 3 2 2 3
9 9 9 9 9 9 9 9 9 9 9 8 8 8 8 8 8 7 7 10 8 6 6 6 6 7 4 3 3 3 3 5 6 4 3 2 2 1
10 10 10 9 9 9 9 9 9 10 9 8 8 8 8 8 8 8 8 7 6 6 6 5 4 3 3 4 5 4 3 2 4 6 7 6 4 4
10 10 10 10 9 9 9 10 11 10 9 9 8 8 8 8 7 7 7 7 6 6 6 4 3 3 4 4 4 4 4 3 2 1 2 5 7 7
Wind_Direction
259 260 260 259 253 253 253 255 274 292 291 255 251 250 263 273 279 282 276 280 284 284 283 281 280 278 277 276 274 273 272 271 270 268 267 266 266 265
263 262 262 262 258 253 252 254 252 269 284 270 254 257 267 280 282 284 280 283 285 285 284 282 280 279 278 276 274 272 271 270 268 266 265 264 264 263
270 268 266 264 263 260 256 255 256 259 277 285 263 258 258 266 276 277 278 277 278 280 282 282 280 279 277 276 274 273 271 270 268 266 265 263 263 263
272 270 270 272 264 262 260 259 260 257 268 283 283 271 260 261 266 269 276 277 273 277 280 281 280 278 277 276 274 273 272 270 269 268 266 264 264 265
267 267 269 268 269 266 262 263 264 266 263 273 281 277 269 266 268 270 270 271 273 276 280 281 281 280 279 277 275 274 272 270 269 267 265 265 265 265
265 264 265 264 266 267 269 265 265 266 267 271 277 278 272 263 263 271 278 270 270 272 275 277 278 280 279 279 278 276 274 272 270 267 264 263 262 262
267 264 264 270 274 277 278 271 267 269 271 274 277 279 275 269 265 267 276 280 273 264 267 269 272 270 274 276 278 279 277 273 270 268 265 263 261 260
273 271 271 277 282 285 288 289 285 280 277 276 280 279 278 272 272 271 275 280 281 246 250 265 259 264 263 257 269 272 271 269 267 266 265 263 263 261
273 275 281 281 288 281 284 286 284 282 280 279 278 277 277 273 272 274 270 269 271 265 265 275 265 267 265 264 269 270 269 266 265 265 264 262 261 261
271 270 273 276 276 282 275 272 268 269 270 272 268 268 267 267 263 267 272 274 271 265 255 272 271 268 269 263 269 269 270 268 266 264 263 262 261 261
273 271 274 274 281 289 287 281 279 273 275 274 274 274 275 279 280 280 278 281 282 271 237 252 269 272 270 266 265 269 269 269 267 265 263 262 261 260
277 271 281 286 289 291 288 282 282 281 275 275 277 278 279 280 283 277 272 275 278 278 241 236 261 272 278 262 259 264 269 272 272 269 267 264 262 257
284 280 276 290 292 292 293 287 285 287 282 276 274 269 265 261 261 259 253 257 266 266 250 241 258 254 260 276 277 261 247 252 270 273 274 268 263 258
289 284 281 290 293 295 296 293 294 298 292 283 277 273 268 265 262 259 258 255 256 261 262 252 258 258 262 267 268 261 253 247 242 250 252 269 271 269
286 288 292 296 299 299 295 297 299 296 289 281 276 274 268 265 267 270 269 265 265 260 258 250 251 255 252 256 259 253 256 250 228 233 238 238 240 246
289 289 293 295 295 293 295 296 288 278 281 277 276 275 273 270 269 266 271 273 275 274 258 247 247 247 251 250 253 256 236 238 230 218 224 235 232 223
292 288 286 289 286 283 283 281 276 277 283 274 275 277 277 275 273 268 265 266 268 275 279 269 251 245 244 246 250 247 240 235 231 218 212 233 239 227
301 293 292 291 289 288 289 288 284 281 277 276 275 273 275 274 274 272 267 262 267 273 272 270 267 263 262 256 237 242 238 236 228 212 207 220 245 237
299 289 287 286 285 285 285 283 282 279 276 275 275 273 272 271 270 271 269 267 267 269 271 262 242 229 244 261 267 227 223 225 211 211 214 214 228 238
280 279 281 282 281 281 282 282 280 279 275 273 271 269 267 268 269 266 263 261 266 269 270 260 239 230 232 240 250 253 231 218 213 217 217 212 231 257
284 279 277 278 279 279 279 279 278 277 274 273 271 267 264 262 263 262 261 264 265 262 262 259 254 257 250 223 237 253 260 236 217 207 192 191 207 213
281 280 278 277 278 277 277 277 277 275 271 269 269 267 263 259 259 259 258 258 257 255 258 264 264 256 225 225 234 240 249 254 238 223 215 203 187 195
279 279 278 277 274 273 273 272 272 273 269 265 265 266 263 260 255 253 253 253 255 255 257 260 256 241 237 229 228 231 230 221 205 202 230 227 225 223
Height
1482 1478 1475 1472 1469 1466 1463 1460 1454 1443 1435 1436 1436 1435 1434 1432 1429 1426 1424 1422 1419 1418 1417 1416 1415 1414 1413 1413 1413 1414 1414 1415 1416 1416 1418 1419 1421 1423
1474 1470 1467 1464 1461 1458 1455 1452 1449 1442 1430 1427 1427 1427 1425 1423 1421 1418 1415 1412 1410 1408 1407 1406 1405 1404 1403 1403 1403 1403 1404 1405 1406 1407 1408 1409 1411 1413
1466 1462 1459 1456 1452 1449 1446 1443 1440 1436 1426 1419 1419 1417 1415 1413 1411 1409 1406 1403 1400 1399 1397 1396 1395 1394 1393 1393 1393 1393 1394 1394 1395 1396 1398 1399 1401 1403
1458 1454 1450 1447 1443 1441 1437 1434 1431 1427 1421 1412 1409 1408 1406 1404 1401 1399 1396 1394 1391 1389 1388 1386 1385 1384 1384 1383 1383 1383 1384 1384 1385 1386 1387 1389 1390 1392
1449 1445 1442 1438 1434 1432 1428 1424 1421 1418 1414 1408 1401 1400 1397 1396 1393 1390 1387 1385 1382 1380 1378 1377 1376 1375 1374 1374 1373 1373 1374 1374 1375 1376 1377 1378 1380 1382
1441 1437 1433 1430 1426 1422 1419 1415 1412 1408 1405 1400 1395 1391 1389 1387 1385 1382 1378 1376 1373 1371 1369 1368 1366 1365 1364 1364 1364 1363 1363 1364 1364 1366 1367 1369 1370 1372
1431 1428 1425 1421 1417 1414 1411 1407 1404 1400 1396 1392 1388 1384 1381 1379 1377 1374 1371 1367 1364 1363 1360 1359 1358 1356 1355 1354 1354 1353 1354 1354 1355 1356 1357 1359 1361 1362
1422 1418 1415 1412 1408 1405 1402 1399 1396 1393 1388 1385 1380 1377 1374 1372 1370 1367 1363 1360 1355 1354 1353 1349 1349 1347 1346 1345 1345 1345 1344 1345 1346 1347 1348 1350 1352 1353
1413 1409 1406 1402 1399 1395 1391 1388 1385 1383 1381 1378 1373 1369 1367 1364 1362 1358 1355 1352 1348 1347 1346 1340 1340 1338 1337 1337 1336 1336 1336 1336 1337 1338 1340 1341 1343 1345
1405 1401 1397 1392 1390 1386 1382 1378 1375 1372 1371 1368 1364 1361 1358 1356 1354 1351 1347 1344 1340 1339 1339 1334 1332 1330 1329 1328 1328 1328 1328 1329 1330 1330 1332 1333 1335 1336
1395 1392 1389 1384 1380 1378 1375 1370 1366 1362 1361 1359 1356 1353 1350 1349 1347 1343 1340 1337 1332 1330 1330 1328 1324 1323 1321 1320 1320 1320 1320 1321 1322 1323 1324 1325 1327 1329
1385 1382 1380 1376 1373 1370 1367 1362 1357 1353 1351 1348 1346 1343 1341 1339 1338 1336 1333 1330 1326 1322 1321 1321 1318 1318 1314 1313 1313 1313 1314 1314 1315 1316 1317 1318 1320 1321
1377 1373 1370 1368 1364 1361 1358 1354 1350 1346 1342 1339 1336 1334 1332 1330 1328 1327 1325 1322 1319 1316 1315 1315 1312 1311 1311 1308 1307 1308 1308 1309 1309 1310 1310 1312 1313 1315
1369 1365 1362 1359 1356 1352 1349 1345 1342 1339 1334 1331 1328 1325 1323 1321 1319 1317 1316 1314 1311 1309 1308 1308 1306 1305 1304 1303 1302 1302 1302 1303 1304 1304 1305 1306 1308 1309
1362 1357 1354 1351 1347 1343 1339 1336 1333 1330 1326 1323 1320 1317 1315 1313 1311 1309 1307 1305 1303 1302 1301 1300 1299 1299 1298 1297 1296 1297 1297 1297 1299 1299 1301 1302 1303 1304
1353 1348 1345 1341 1338 1334 1330 1327 1325 1322 1319 1316 1312 1310 1308 1306 1304 1302 1300 1298 1297 1295 1295 1294 1293 1293 1292 1291 1292 1291 1292 1293 1294 1295 1296 1297 1299 1300
1345 1340 1336 1332 1328 1325 1322 1319 1316 1314 1311 1309 1306 1303 1301 1299 1298 1296 1295 1293 1291 1289 1288 1288 1287 1287 1286 1286 1286 1286 1287 1288 1289 1291 1292 1293 1294 1295
1337 1332 1328 1324 1321 1317 1314 1311 1309 1306 1304 1302 1299 1297 1295 1293 1291 1290 1289 1287 1286 1284 1283 1282 1282 1282 1282 1281 1282 1281 1282 1283 1285 1286 1287 1288 1290 1291
1329 1324 1320 1317 1313 1310 1307 1304 1301 1299 1297 1295 1293 1291 1289 1287 1286 1284 1283 1282 1280 1279 1278 1278 1278 1277 1277 1276 1277 1278 1278 1279 1280 1282 1283 1284 1286 1287
1320 1316 1312 1309 1306 1303 1300 1297 1294 1292 1290 1288 1286 1284 1283 1281 1280 1278 1277 1276 1275 1274 1273 1273 1273 1273 1273 1273 1273 1273 1275 1276 1277 1278 1279 1281 1282 1284
1312 1308 1305 1301 1298 1295 1292 1289 1287 1284 1282 1281 1279 1277 1276 1275 1273 1272 1271 1271 1270 1269 1268 1268 1268 1269 1269 1269 1269 1269 1271 1272 1273 1274 1276 1277 1279 1280
1303 1300 1296 1293 1290 1287 1284 1282 1279 1277 1275 1273 1272 1270 1269 1268 1267 1266 1265 1265 1264 1264 1263 1263 1264 1264 1264 1264 1264 1265 1267 1268 1270 1271 1273 1274 1276 1277
1295 1291 1288 1284 1281 1279 1276 1273 1271 1269 1267 1266 1264 1263 1262 1261 1260 1260 1259 1259 1259 1258 1258 1258 1259 1259 1259 1260 1260 1261 1263 1264 1266 1267 1269 1271 1273 1275